Starlink 32719

operational
NORAD ID: 62448 Int'l Des: 2024-251 Owner: SPXS Country: US Constellation: starlink
LEOCIRCULAR

关于 Starlink 32719

正在加载描述...

实时位置

正在加载3D地球...

即将过境

高度历史

Altitude vs Time

uPlot chart will show altitude changes over time

两行轨道根数

1 62448U 24251S 25304.05281470 .00036686 00000-0 12451-2 0 9993
2 62448 53.1583 217.7885 0001335 80.5780 279.5372 15.30187147 47923
Epoch: Oct 31, 2025 • Age: 16 hours

当前状态

高度 475.3 km
速度 7.63 km/s
星下点 7.91°N, 83.15°E
发射日期 Dec 29, 2024
运行时间 0.8 years
类型 internet

技术详情

分类 Payload
质量 730.00 kg
干质量 700.00 kg
总质量 730.00 kg
长度 0.30 m
直径 4.10 m
跨度 29.00 m
形状 Box + pan
制造商 SPXS
平台类型 Starlink V2M
阶段状态 In Orbit
所有者/国家 SPXS/US

大型星座

Loading constellations...